GW0507 Weather Reports


Display with metric or nautical units.
time (UTC)temp
F
wind
direction
speed
MPH
gust
MPH
rain 1hr
in
rain 24hr
in
rain mn
in
humidity
%
barometer
mb
20260505080038 45 244 9.0 20.0 0.00 0.32 0.00 79 1007.5
20260505074537 46 227 10.0 18.0 0.00 0.33 0.00 79 1007.4
20260505073036 46 221 7.0 22.0 0.00 0.33 0.00 79 1007.3
20260505071541 46 233 12.0 22.0 0.00 0.33 0.00 79 1006.8
20260505070038 46 238 15.0 31.0 0.00 0.33 0.00 78 1006.6
20260505064536 46 260 10.0 26.0 0.00 0.37 0.00 78 1006.4
20260505063044 46 221 9.0 21.0 0.00 0.37 0.00 79 1006.2
20260505061603 46 238 10.0 20.0 0.00 0.37 0.00 78 1005.9
20260505060044 47 238 14.0 28.0 0.00 0.37 0.00 78 1005.6
20260505054544 47 226 11.0 26.0 0.00 0.37 0.00 78 1005.4
20260505053046 46 271 12.0 25.0 0.00 0.37 0.00 78 1005.1
20260505051605 47 269 11.0 23.0 0.00 0.37 0.00 78 1004.9
20260505041540 47 269 9.0 18.0 0.00 0.38 0.00 79 1004.3
20260505040037 47 253 8.0 15.0 0.00 0.38 0.00 79 1004.3
20260505034541 47 284 7.0 17.0 0.00 0.38 0.00 79 1004.3
20260505033034 47 280 11.0 20.0 0.00 0.38 0.00 80 1004.0
20260505031541 46 223 12.0 29.0 0.00 0.38 0.00 79 1003.6
20260505030049 47 229 14.0 22.0 0.00 0.38 0.00 77 1003.4
20260505024539 48 266 10.0 20.0 0.00 0.39 0.38 75 1003.3
20260505023036 48 232 10.0 24.0 0.00 0.39 0.38 73 1003.2
20260505021534 49 244 12.0 20.0 0.00 0.39 0.38 71 1003.2
20260505020035 48 240 7.0 15.0 0.00 0.39 0.38 70 1003.1
20260505014532 49 217 9.0 26.0 0.00 0.51 0.38 69 1002.6
20260505013032 49 227 15.0 28.0 0.00 0.51 0.38 67 1002.4
20260505011537 48 197 14.0 21.0 0.00 0.51 0.38 68 1002.3
20260505010037 48 218 8.0 17.0 0.00 0.51 0.38 67 1002.1
20260505004535 47 217 9.0 18.0 0.00 0.75 0.38 66 1002.2
20260505003035 47 182 7.0 15.0 0.00 0.75 0.38 68 1002.0
20260505001535 47 216 8.0 17.0 0.00 0.75 0.38 67 1002.1
20260505000038 47 215 6.0 17.0 0.00 0.75 0.38 66 1001.7
20260504234536 47 203 6.0 13.0 0.00 0.88 0.38 65 1001.5
20260504233038 49 212 3.0 17.0 0.00 0.88 0.38 61 1001.1
20260504231541 48 221 5.0 13.0 0.00 0.88 0.38 61 1000.8
20260504230046 49 277 6.0 17.0 0.00 0.88 0.38 59 1000.6
20260504224533 49 178 7.0 12.0 0.00 1.11 0.38 60 1000.5
20260504223034 50 259 5.0 28.0 0.00 1.11 0.38 61 1000.4
20260504221535 50 231 7.0 20.0 0.00 1.11 0.38 62 1000.1
20260504220035 50 223 11.0 18.0 0.00 1.11 0.38 62 999.9
20260504214534 50 222 7.0 16.0 0.00 1.19 0.38 63 999.7
20260504213035 50 226 14.0 35.0 0.00 1.19 0.38 62 999.5
20260504211538 50 212 16.0 35.0 0.00 1.19 0.38 62 999.4
20260504210040 51 329 16.0 36.0 0.00 1.19 0.38 63 999.2
20260504204538 51 287 13.0 33.0 0.00 1.25 0.38 62 998.9
20260504203051 51 254 18.0 40.0 0.00 1.25 0.38 63 998.9
20260504201542 51 259 18.0 34.0 0.00 1.25 0.38 63 998.7
20260504200042 51 234 20.0 39.0 0.00 1.25 0.38 63 998.2
20260504194541 51 261 21.0 47.0 0.00 1.33 0.38 66 997.8
20260504193041 51 261 19.0 39.0 0.00 1.33 0.38 68 997.5
20260504191535 51 248 14.0 31.0 0.00 1.33 0.38 69 997.3
20260504190050 51 238 18.0 40.0 0.00 1.33 0.38 70 997.0
20260504184536 50 284 15.0 34.0 0.00 1.33 0.38 72 996.6
20260504183041 50 284 13.0 34.0 0.00 1.33 0.38 74 996.4
20260504181543 48 292 18.0 41.0 0.00 1.33 0.38 76 996.0
20260504180041 49 269 17.0 43.0 0.00 1.33 0.38 76 995.8
20260504174536 48 309 17.0 35.0 0.00 1.33 0.38 79 995.5
20260504173035 47 288 19.0 38.0 0.00 1.33 0.38 80 995.6
20260504171543 47 271 18.0 37.0 0.00 1.33 0.38 81 995.0
20260504081536 38 198 7.0 12.0 0.02 1.01 0.07 97 975.0